Погода в Ушье

Россия / Ханты-Мансийский автономный округ - Югра     60°13′14″N   64°28′46″E
темп.,
°C
ветер,
м/с
пор.,
м/с
влажн.,
%
обл.,
%
осадки,
мм/ч
давл.,
гПа
погр.,
м
23 мая, пн
пн2323:00+4ююз5990100 0.2 994808
02:00+4ююз6108939 0.1 996690
05:00+2ю512915 0.1 998389
08:00+6ююз610685 0.0 10001050
11:00+9ююз71049100 0.0 10011998
14:00+9ююз695692 0.3 10031525
17:00+11ююз5849100 0.4 10041814
20:00+9ююв246642 0.2 1004275
24 мая, вт
вт2423:00+6юв33775 0.2 100529
02:00+5юв3381100 0.0 100646
05:00+5юв349393 0.0 1008108
08:00+10юв4675100 0.0 1008676
11:00+8юв5989100 0.8 1009528
14:00+9ю2488100 0.3 1010345
17:00+13юз456197 0.3 10111319
20:00+11ссз2377100 0.0 101379
25 мая, ср
ср2523:00+9в3381100 0.0 101443
02:00+8в3684100 0.0 1015124
05:00+9в3885100 0.1 1014191
08:00+12в61189100 0.7 1013376
11:00+17вюв71276100 0.7 1011643
14:00+22ююв485596 0.0 10111069
17:00+24юв61146100 0.0 10101258
20:00+21юв61453100 0.0 1009490
26 мая, чт
чт2623:00+18юв51366100 0.0 1009369
02:00+17юв61571100 0.0 1009418
05:00+16юв41174100 0.0 1008321
08:00+20юв611616 0.0 1007644
11:00+25юв7114291 0.0 10051398
14:00+27юв913365 0.0 10032561
17:00+27юв10143839 0.0 10012159
20:00+15з698287 0.1 1002296
27 мая, пт
пт2723:00+14зсз2394100 8.6 1000318
02:00+11з61092100 3.2 1001472
05:00+9зюз71292100 4.9 1002644
08:00+9зюз7117320 0.3 1005808
11:00+12юз785959 0.3 10071534
14:00+13з585482 0.0 10091568
17:00+13юз58554 0.0 10101438
20:00+12юз386426 0.0 1011514